Anchorage Merrill, AK

11:36 AM AKST on December 15, 2017 (GMT -0900)
Merrill

Weather History for PAMR - June, 2014

Change the Weather History Date:

Tuesday, June 3, 2014

  Actual Average Record
Temperature  
Mean Temperature 55 °F -  
Max Temperature 66 °F 60 °F 69 °F (1997)
Min Temperature 44 °F 44 °F 39 °F (1999)
Degree Days  
Heating Degree Days 10    
Growing Degree Days 5 (Base 50)    
Moisture  
Dew Point 39 °F    
Average Humidity 55    
Maximum Humidity 76    
Minimum Humidity 37    
Precipitation  
Precipitation 0.00 in - - ()
Sea Level Pressure  
Sea Level Pressure 30.18 in    
Wind  
Wind Speed 2 mph (WNW)    
Max Wind Speed 9 mph    
Max Gust Speed -    
Visibility 10 miles    
Events      
Averages and records for this station are not official NWS values.
T = Trace of Precipitation, MM = Missing Value Source: NWS Daily Summary

Daily Weather History Graph

Daily Weather History Graph

Search for Another Location

Airport or City:

Trip Planner

Search our weather history database for the weather conditions in past years. The results will help you decide how hot, cold, wet, or windy it might be!

Date:

Astronomy

Jun. 03, 2014 Rise Set
Actual Time 4:32 AM AKDT 11:24 PM AKDT
Civil Twilight 2:41 AM AKDT 1:19 AM AKDT
Nautical Twilight Sun does not rise Sun does not rise
Astronomical Twilight Sun does not rise Sun does not rise
Moon 11:21 AM AKDT (6/3) 1:45 AM AKDT (6/3)
Length of Visible Light 22h 38m
Length of Day
18h 51m
Waxing Crescent, 31% of the Moon is Illuminated
Jun 3
Waxing Crescent
Jun 5
First Quarter
Jun 12
Full
Jun 19
Last Quarter
Jun 27
New

Hourly Weather History & Observations

Time (AKDT) Temp. Dew Point Humidity Pressure Visibility Wind Dir Wind Speed Gust Speed Precip Events Conditions
12:53 AM 48.9 °F 41.0 °F 74% 30.22 in 10.0 mi Calm Calm - N/A   Mostly Cloudy
1:53 AM 46.9 °F 39.0 °F 74% 30.21 in 10.0 mi Calm Calm - N/A   Mostly Cloudy
2:53 AM 46.9 °F 39.0 °F 74% 30.22 in 10.0 mi Calm Calm - N/A   Mostly Cloudy
3:53 AM 45.0 °F 37.0 °F 74% 30.22 in 10.0 mi Calm Calm - N/A   Mostly Cloudy
4:53 AM 44.1 °F 37.0 °F 76% 30.22 in 10.0 mi Calm Calm - N/A   Mostly Cloudy
5:53 AM 45.0 °F 37.0 °F 74% 30.22 in 10.0 mi Calm Calm - N/A   Mostly Cloudy
6:53 AM 46.9 °F 37.9 °F 71% 30.22 in 10.0 mi Calm Calm - N/A   Mostly Cloudy
7:53 AM 50.0 °F 39.9 °F 68% 30.22 in 10.0 mi Calm Calm - N/A   Clear
8:53 AM 51.1 °F 41.0 °F 68% 30.22 in 10.0 mi Calm Calm - N/A   Clear
9:53 AM 54.0 °F 42.1 °F 64% 30.21 in 10.0 mi Calm Calm - N/A   Clear
10:53 AM 59.0 °F 37.9 °F 46% 30.20 in 10.0 mi North 6.9 mph - N/A   Clear
11:53 AM 60.1 °F 39.0 °F 46% 30.19 in 10.0 mi WNW 8.1 mph - N/A   Clear
12:53 PM 61.0 °F 39.0 °F 44% 30.19 in 10.0 mi West 5.8 mph - N/A   Clear
1:53 PM 63.0 °F 37.9 °F 40% 30.18 in 10.0 mi Variable 5.8 mph - N/A   Clear
2:53 PM 64.9 °F 37.9 °F 37% 30.17 in 10.0 mi WNW 6.9 mph - N/A   Clear
3:53 PM 63.0 °F 39.9 °F 43% 30.15 in 10.0 mi WNW 9.2 mph - N/A   Clear
4:53 PM 66.0 °F 39.9 °F 38% 30.14 in 10.0 mi WNW 6.9 mph - N/A   Scattered Clouds
5:53 PM 63.0 °F 39.0 °F 41% 30.14 in 10.0 mi WNW 8.1 mph - N/A   Scattered Clouds
6:53 PM 64.0 °F 39.9 °F 41% 30.13 in 10.0 mi WNW 6.9 mph - N/A   Scattered Clouds
7:53 PM 61.0 °F 37.9 °F 42% 30.13 in 10.0 mi West 8.1 mph - N/A   Mostly Cloudy
8:53 PM 62.1 °F 36.0 °F 38% 30.13 in 10.0 mi SSW 3.5 mph - N/A   Overcast
10:53 PM 60.1 °F 39.0 °F 46% 30.13 in 10.0 mi Calm Calm - N/A   Partly Cloudy
11:53 PM 55.9 °F 41.0 °F 57% 30.14 in 10.0 mi South 3.5 mph - N/A   Scattered Clouds